Tracking 19575 objects as of 19-Feb-2019
HD Live streaming from Space Station
objects crossing your sky now

BEIDOU 3M14

Track BEIDOU 3M14 now!


NORAD ID: 43623
Int'l Code: 2018-072B
Perigee: 21,522.6 km
Apogee: 21,547.6 km
Inclination: 55.0 °
Period: 773.2 minutes
Semi major axis: 27906 km
RCS: Unknown
Launch date: September 19, 2018
Source: People's Republic of China (PRC)
Launch site: Xichang Space Center, China (XSC)
aabbcc
Your satellite tracking list
Your tracking list is empty




NASA's NSSDC Master Catalog

Two Line Element Set (TLE):
1 43623U 18072B   19050.43818484 -.00000006  00000-0  00000+0 0  9997
2 43623  55.0062 152.2107 0004473 308.7878 137.1678  1.86231673  2849
Source of the keplerian elements: AFSPC